Weather History for Whiteman AFB, MO

Change the Weather History Date:

Friday, March 15, 2013

  Actual Average Record
Temperature  
Mean Temperature 56 °F -  
Max Temperature 77 °F 51 °F 77 °F (2003)
Min Temperature 36 °F 31 °F 21 °F (1997)
Degree Days  
Heating Degree Days 8    
Growing Degree Days 6 (Base 50)    
Moisture  
Dew Point 46 °F    
Average Humidity 69    
Maximum Humidity 99    
Minimum Humidity 37    
Precipitation  
Precipitation 0.00 in - - ()
Sea Level Pressure  
Sea Level Pressure 29.85 in    
Wind  
Wind Speed 9 mph (SW)    
Max Wind Speed 21 mph    
Max Gust Speed 24 mph    
Visibility 10 miles    
Events      
Averages and records for this station are not official NWS values.
T = Trace of Precipitation, MM = Missing Value Source: NWS Daily Summary

Daily Weather History Graph

Daily Weather History Graph

Search for Another Location

Airport:

Trip Planner

Search our weather history database for the weather conditions in past years. The results will help you decide how hot, cold, wet, or windy it might be!

Date:

Astronomy

Mar. 15, 2013 Rise Set
Actual Time 7:25 AM CDT 7:21 PM CDT
Civil Twilight 6:58 AM CDT 7:48 PM CDT
Nautical Twilight 6:27 AM CDT 8:18 PM CDT
Astronomical Twilight 5:56 AM CDT 8:50 PM CDT
Moon 9:18 AM CDT (3/15) 11:33 PM CDT (3/15)
Length of Visible Light 12h 49m
Length of Day
11h 56m
Waxing Crescent, 15% of the Moon is Illuminated
Mar 15
Waxing Crescent
Mar 19
First Quarter
Mar 27
Full
Apr 2
Last Quarter
Apr 10
New

Hourly Weather History & Observations

Time (CDT) Temp. Windchill Dew Point Humidity Pressure Visibility Wind Dir Wind Speed Gust Speed Precip Events Conditions
12:58 AM 46.0 °F - 39.7 °F 79% 30.07 in 10.0 mi NW 1.2 mph - N/A   Clear
1:58 AM 44.2 °F 41.8 °F 39.4 °F 83% 30.06 in 10.0 mi NNW 4.6 mph - N/A   Clear
2:58 AM 42.6 °F - 38.7 °F 86% 30.04 in 10.0 mi West 1.2 mph - N/A   Clear
3:58 AM 37.4 °F 32.8 °F 37.0 °F 99% 30.01 in 10.0 mi SSW 5.8 mph - N/A   Clear
4:58 AM 36.3 °F 31.6 °F 36.0 °F 99% 29.98 in 10.0 mi SSW 5.8 mph - N/A   Clear
5:58 AM 37.8 °F 33.3 °F 37.4 °F 99% 29.98 in 10.0 mi South 5.8 mph - N/A   Clear
6:58 AM 37.4 °F 32.1 °F 37.0 °F 99% 29.97 in 10.0 mi SSW 6.9 mph - N/A   Clear
7:58 AM 38.7 °F 35.2 °F 38.5 °F 99% 29.96 in 10.0 mi South 4.6 mph - N/A   Clear
8:58 AM 46.6 °F - 45.9 °F 97% 29.94 in 10.0 mi South 9.2 mph - N/A   Clear
9:58 AM 54.1 °F - 46.6 °F 76% 29.93 in 10.0 mi SSW 11.5 mph - N/A   Clear
10:58 AM 59.9 °F - 47.1 °F 63% 29.90 in 10.0 mi SW 11.5 mph - N/A   Clear
11:58 AM 65.7 °F - 47.7 °F 52% 29.87 in 10.0 mi SW 16.1 mph - N/A   Clear
12:58 PM 70.9 °F - 48.7 °F 45% 29.83 in 10.0 mi SW 15.0 mph - N/A   Clear
1:58 PM 73.8 °F - 50.2 °F 43% 29.78 in 10.0 mi SSW 18.4 mph - N/A   Clear
2:58 PM 74.3 °F - 49.8 °F 42% 29.74 in 10.0 mi SW 19.6 mph - N/A   Partly Cloudy
3:58 PM 77.2 °F - 48.9 °F 37% 29.73 in 10.0 mi SW 20.7 mph 24.2 mph N/A   Clear
4:58 PM 75.0 °F - 50.0 °F 41% 29.72 in 10.0 mi SW 19.6 mph - N/A   Clear
5:58 PM 72.0 °F - 51.6 °F 49% 29.71 in 10.0 mi SW 16.1 mph - N/A   Clear
6:58 PM 68.7 °F - 52.0 °F 55% 29.70 in 10.0 mi SSW 16.1 mph - N/A   Clear
7:58 PM 66.2 °F - 51.6 °F 59% 29.69 in 10.0 mi SSW 15.0 mph - N/A   Scattered Clouds
8:58 PM 63.1 °F - 50.9 °F 64% 29.69 in 10.0 mi SSW 12.7 mph - N/A   Clear
9:58 PM 62.4 °F - 51.1 °F 66% 29.68 in 10.0 mi SSW 13.8 mph - N/A   Clear
10:58 PM 63.7 °F - 50.7 °F 63% 29.67 in 10.0 mi SW 16.1 mph - N/A   Clear
11:58 PM 62.1 °F - 50.0 °F 65% 29.67 in 10.0 mi SW 12.7 mph - N/A   Clear